Simultaneous Nadir Overpasses (SNOs) Predictions

Prediction of SNOs between FY3D and TERRA Satellite Orbit:

Table of predicted SNOs for the next 14.0 days since TLE Epoch: 11/4/2022
Index Date (FY3D) Time (FY3D) Lat,Lon (FY3D) SZA (FY3D ) Date (TERRA) Time (TERRA) Lat,Lon (TERRA) SZA (TERRA ) Distance(km) Time Diff (sec)
1 11/05/2022 05:28:21 72.31, 97.70 87.93 11/05/2022 05:28:40 72.29, 97.66 87.90 3.25 19
2 11/05/2022 06:19:04 -72.24, -94.83 92.14 11/05/2022 06:18:06 -72.21, -94.82 92.17 2.75 58
3 11/07/2022 17:32:38 -72.36, 96.57 91.28 11/07/2022 17:33:31 -72.37, 96.58 91.27 0.87 53
4 11/07/2022 18:23:23 72.25, -95.90 88.62 11/07/2022 18:22:54 72.27, -95.94 88.64 2.80 29
5 11/10/2022 05:37:04 72.73, 94.76 89.80 11/10/2022 05:38:15 72.61, 95.80 89.70 36.74 71
6 11/10/2022 06:27:41 -72.35, -97.14 90.57 11/10/2022 06:27:45 -72.33, -97.07 90.59 3.13 4
7 11/10/2022 07:18:22 72.03, 70.79 89.14 11/10/2022 07:17:10 72.12, 70.21 89.21 22.11 72
8 11/12/2022 18:31:59 72.36, -98.22 90.13 11/12/2022 18:32:31 72.38, -98.20 90.15 1.91 32
9 11/12/2022 19:22:42 -72.28, 69.25 89.94 11/12/2022 19:21:58 -72.26, 69.23 89.96 2.55 44
10 11/15/2022 06:36:16 -72.41, -99.35 89.17 11/15/2022 06:37:22 -72.39, -99.41 89.19 2.89 66
11 11/15/2022 07:27:02 72.34, 68.08 90.78 11/15/2022 07:26:44 72.33, 68.14 90.76 2.78 18
12 11/15/2022 08:17:30 -71.50,-123.00 90.02 11/15/2022 08:16:24 -71.52,-125.61 90.07 91.97 66
13 11/17/2022 18:40:50 73.18,-102.04 92.21 11/17/2022 18:41:56 73.07, -99.34 92.14 87.84 66
14 11/17/2022 19:31:19 -72.39, 66.94 88.56 11/17/2022 19:31:34 -72.37, 66.99 88.58 3.04 15
15 11/17/2022 20:22:04 72.28,-125.53 91.35 11/17/2022 20:20:57 72.25,-125.56 91.31 3.10 67



Historial Predications of SNOs between FY3D and TERRA
